This is the latest recevied weather packets stored in our database for station/object N3EDS. If no packets are shown the sender has not sent any weather packets the latest 10 day(s).
| Time | Temp. | Humidity | Pressure | Rain* | Wind** | Luminosity | Snow |
|---|---|---|---|---|---|---|---|
| 1777670408 | 10.56° C | 62% | 1011 hPa | 0 mm | - | 126 W/m² | - |
| 1777670105 | 10.56° C | 63% | 1011.5 hPa | 0 mm | - | 101 W/m² | - |
| 1777669803 | 10.56° C | 61% | 1011.1 hPa | 0 mm | - | 71 W/m² | - |
| 1777669499 | 11.11° C | 60% | 1011.1 hPa | 0 mm | - | 108 W/m² | - |
| 1777669195 | 11.11° C | 59% | 1011.1 hPa | 0 mm | - | 109 W/m² | - |
| 1777668892 | 11.11° C | 58% | 1010.9 hPa | 0 mm | - | 112 W/m² | - |
| 1777668590 | 11.11° C | 56% | 1011.1 hPa | 0 mm | - | 112 W/m² | - |
| 1777668285 | 11.11° C | 57% | 1010.6 hPa | 0 mm | - | 146 W/m² | - |
| 1777667982 | 11.67° C | 54% | 1010.9 hPa | 0 mm | - | 79 W/m² | - |
| 1777667679 | 11.67° C | 53% | 1011.1 hPa | 0 mm | - | 78 W/m² | - |
| 1777667376 | 11.67° C | 51% | 1011 hPa | 0 mm | - | 83 W/m² | - |
| 1777667073 | 11.67° C | 53% | 1010.9 hPa | 0 mm | - | 92 W/m² | - |
| 1777666769 | 11.67° C | 51% | 1010.8 hPa | 0 mm | - | 73 W/m² | - |
| 1777666467 | 12.22° C | 50% | 1010.8 hPa | 0 mm | - | 69 W/m² | - |
| 1777666163 | 12.22° C | 50% | 1011 hPa | 0 mm | - | 62 W/m² | - |
| 1777665860 | 12.22° C | 48% | 1010.9 hPa | 0 mm | - | 102 W/m² | - |
| 1777665558 | 12.22° C | 49% | 1010.9 hPa | 0 mm | - | 104 W/m² | - |
| 1777665255 | 12.78° C | 47% | 1010.8 hPa | 0 mm | - | 156 W/m² | - |
| 1777664950 | 12.78° C | 48% | 1010.7 hPa | 0 mm | - | 170 W/m² | - |
| 1777664646 | 12.78° C | 47% | 1010.8 hPa | 0 mm | - | 237 W/m² | - |
| 1777664342 | 12.22° C | 46% | 1011.2 hPa | 0 mm | - | 184 W/m² | - |
| 1777664041 | 11.67° C | 48% | 1011.3 hPa | 0 mm | - | 147 W/m² | - |
| 1777663738 | 11.67° C | 47% | 1011.2 hPa | 0 mm | - | 61 W/m² | - |
| 1777663435 | 12.22° C | 46% | 1011.4 hPa | 0 mm | - | 87 W/m² | - |
| 1777663132 | 12.78° C | 46% | 1011.2 hPa | 0 mm | - | 84 W/m² | - |
* Rain latest hour (hover to see other rain measurements)
** Current wind speed in m/s (hover to see current wind gust speed)